SCP
0 0 0 0 0 0 0 0 0 0 0 0 0 0 0 0 0 0 0 0 0 0 0 0 0 0 0 0 0 0 0 0 0 0 0 0 0 0 0 0 0 0 0 0
0 0 0 0 0 0 0 0 0 0 0 0 0 0 0 0 0 0 0 0 0 0 0 0 0 0 0 0 0 0 0 0 0 0 0 0 0 0 0 0 0 0 0 0
0 0 0 0 0 0 0 0 0 0 0 0 0 0 0 0 0 0 0 0 0 0 0 0 0 0 0 0 0 0 0 0 0 0 0 0 0 0 0 0 0 0 0 0
0 0 0 0 0 0 0 0 0 0 0 0 0 0 0 0 0 0 0 0 0 0 0 0 0 0 0 0 0 0 0 0 0 0 0 0 0 0 0 0 0 0 0 0
0 0 0 0 0 0 0 0 0 0 0 0 0 0 0 0 0 0 0 0 0 0 0 0 0 0 0 0 0 0 0 0 0 0 0 0 0 0 0 0 0 0 0 0
0 0 0 0 0 0 0 0 0 0 0 0 0 0 0 0 0 0 0 0 0 0 0 0 0 0 0 0 0 0 0 0 0 0 0 0 0 0 0 0 0 0 0 0
0 0 0 0 0 0 0 0 0 0 0 0 0 0 0 0 0 0 0 0 0 0 0 0 0 0 0 0 0 0 0 0 0 0 0 0 0 0 0 0 0 0 0 0
0 0 0 0 0 0 0 0 0 0 0 0 0 0 0 0 0 0 0 0 0 0 0 0 0 0 0 0 0 0 0 0 0 0 0 0 0 0 0 0 0 0 0 0
0 0 0 0 0 0 0 0 0 0 0 0 0 0 0 0 0 0 0 0 0 0 0 0 0 0 0 0 0 0 0 0 0 0 0 0 0 0 0 0 0 0 0 0
0 0 0 0 0 0 0 0 0 0 0 0 0 0 0 0 0 0 0 0 0 0 0 0 0 0 0 0 0 0 0 0 0 0 0 0 0 0 0 0 0 0 0 0
0 0 0 0 0 0 0 0 0 0 0 0 0 0 0 0 0 0 0 0 0 0 0 0 0 0 0 0 0 0 0 0 0 0 0 0 0 0 0 0 0 0 0 0
0 0 0 0 0 0 0 0 0 0 0 0 0 0 0 0 0 0 0 0 0 0 0 0 0 0 0 0 0 0 0 0 0 0 0 0 0 0 0 0 0 0 0 0
0 0 0 0 0 0 0 0 0 0 0 0 0 0 0 0 0 0 0 0 0 0 0 0 0 0 0 0 0 0 0 0 0 0 0 0 0 0 0 0 0 0 0 0
0 0 0 0 0 0 0 0 0 0 0 0 0 0 0 0 0 0 0 0 0 0 0 0 0 0 0 0 0 0 0 0 0 0 0 0 0 0 0 0 0 0 0 0
0 0 0 0 0 0 0 0 0 0 0 0 0 0 0 0 0 0 0 0 0 0 0 0 0 0 0 0 0 0 0 0 0 0 0 0 0 0 0 0 0 0 0 0
0 0 0 0 0 0 0 0 0 0 0 0 0 0 0 0 0 0 0 0 0 0 0 0 0 0 0 0 0 0 0 0 0 0 0 0 0 0 0 0 0 0 0 0
0 0 0 0 0 0 0 0 0 0 0 0 0 0 0 0 0 0 0 0 0 0 0 0 0 0 0 0 0 0 0 0 0 0 0 0 0 0 0 0 0 0 0 0
0 0 0 0 0 0 0 0 0 0 0 0 0 0 0 0 0 0 0 0 0 0 0 0 0 0 0 0 0 0 0 0 0 0 0 0 0 0 0 0 0 0 0 0
0 0 0 0 0 0 0 0 0 0 0 0 0 0 0 0 0 0 0 0 0 0 0 0 0 0 0 0 0 0 0 0 0 0 0 0 0 0 0 0 0 0 0 0
0 0 0 0 0 0 0 0 0 0 0 0 0 0 0 0 0 0 0 0 0 0 0 0 0 0 0 0 0 0 0 0 0 0 0 0 0 0 0 0 0 0 0 0
0 0 0 0 0 0 0 0 0 0 0 0 0 0 0 0 0 0 0 0 0 0 0 0 0 0 0 0 0 0 0 0 0 0 0 0 0 0 0 0 0 0 0 0
0 0 0 0 0 0 0 0 0 0 0 0 0 0 0 0 0 0 0 0 0 0 0 0 0 0 0 0 0 0 0 0 0 0 0 0 0 0 0 0 0 0 0 0
0 0 0 0 0 0 0 0 0 0 0 0 0 0 0 0 0 0 0 0 0 0 0 0 0 0 0 0 0 0 0 0 0 0 0 0 0 0 0 0 0 0 0 0
0 0 0 0 0 0 0 0 0 0 0 0 0 0 0 0 0 0 0 0 0 0 0 0 0 0 0 0 0 0 0 0 0 0 0 0 0 0 0 0 0 0 0 0
0 0 0 0 0 0 0 0 0 0 0 0 0 0 0 0 0 0 0 0 0 0 0 0 0 0 0 0 0 0 0 0 0 0 0 0 0 0 0 0 0 0 0 0
0 0 0 0 0 0 0 0 0 0 0 0 0 0 0 0 0 0 0 0 0 0 0 0 0 0 0 0 0 0 0 0 0 0 0 0 0 0 0 0 0 0 0 0
0 0 0 0 0 0 0 0 0 0 0 0 0 0 0 0 0 0 0 0 0 0 0 0 0 0 0 0 0 0 0 0 0 0 0 0 0 0 0 0 0 0 0 0
Wind_Speed
4 4 3 5 7 8 10 10 10 9 9 10 7 6 5 4 3 3 2 2 2 2 2 3 3 3 2 2 2 1 2 2 2 2 2 1 1 1 1 2 2 2 3 3
4 3 4 7 10 11 12 12 13 12 14 7 5 4 5 5 4 4 3 3 3 3 3 3 3 3 3 2 2 2 2 2 2 2 2 2 1 1 2 2 2 2 3 3
4 2 4 10 9 11 8 8 9 12 9 3 4 5 5 5 4 4 4 4 4 4 4 4 4 3 3 3 2 2 2 2 2 2 2 2 2 2 2 2 2 2 3 3
2 2 9 3 2 4 7 7 8 8 5 4 5 6 6 5 5 6 5 5 5 5 5 4 4 3 3 2 2 2 3 3 2 2 2 2 2 2 2 2 2 3 3 3
3 5 9 4 2 3 5 6 5 9 8 5 5 6 5 3 4 5 6 5 5 5 5 4 3 3 2 2 2 3 3 3 3 2 2 2 2 3 2 2 3 3 3 3
4 6 8 1 2 1 2 5 1 4 6 4 2 4 3 2 3 5 5 5 4 4 4 4 3 2 2 3 3 3 3 3 3 3 3 3 3 3 2 2 3 3 3 3
7 7 9 1 2 3 4 3 1 3 4 4 5 5 4 4 5 5 5 5 4 3 3 3 2 2 3 3 4 3 3 2 2 3 3 3 2 2 2 2 2 2 3 3
6 8 8 4 6 6 2 2 1 2 3 4 6 6 6 6 6 5 5 5 4 3 3 3 2 3 3 4 3 2 2 2 2 2 2 2 2 2 2 2 2 3 3 3
8 6 1 6 4 1 1 2 3 3 4 4 5 6 6 6 6 6 5 4 3 3 4 3 3 3 4 3 2 2 2 2 2 2 2 2 2 2 2 2 2 2 2 3
6 6 3 4 3 2 2 3 4 4 4 4 6 6 6 6 5 5 5 4 3 4 4 4 3 3 3 3 2 2 2 2 2 2 2 2 2 2 2 2 3 3 3 3
7 5 4 5 5 5 4 4 4 4 4 5 5 6 6 5 5 5 5 4 3 4 4 5 4 3 3 2 2 2 2 2 2 2 2 2 2 2 3 3 4 4 3 3
7 4 4 4 3 4 4 5 5 5 5 5 5 6 5 5 5 4 5 4 4 4 5 5 4 3 3 2 2 2 2 2 2 2 2 2 2 2 3 4 5 6 6 5
4 2 3 4 3 3 4 5 5 5 5 5 4 4 5 4 4 4 4 4 4 5 4 4 4 4 3 3 2 3 3 2 2 2 2 2 2 2 2 3 4 4 5 5
4 2 4 4 3 3 3 4 3 4 4 4 4 3 3 4 4 4 4 4 4 4 4 4 3 4 3 2 2 3 3 3 3 2 2 2 2 2 2 3 3 3 3 5
4 5 5 3 3 3 2 2 3 3 3 4 3 3 3 3 4 4 4 4 3 3 3 3 3 4 3 2 2 3 3 2 2 2 2 2 2 2 2 3 3 3 3 3
4 4 4 4 4 3 2 3 3 4 4 4 4 4 3 3 4 4 4 3 3 3 3 3 4 4 3 2 2 2 2 4 3 2 2 2 2 2 3 3 3 3 3 3
3 4 4 4 4 4 4 4 4 4 4 4 4 4 3 3 3 4 4 3 3 4 4 4 4 3 3 3 3 2 2 2 3 3 2 2 3 3 3 3 3 3 4 4
5 5 5 5 5 5 4 4 3 3 4 4 3 2 2 3 3 4 4 4 3 4 4 4 3 3 3 3 3 2 2 2 2 2 2 3 3 3 3 3 4 4 4 4
3 3 3 3 3 3 3 3 3 3 3 2 3 3 3 3 3 4 3 3 3 4 4 4 4 3 3 3 3 2 2 3 3 2 2 3 3 3 3 3 4 4 4 4
1 1 1 1 1 1 2 2 2 2 2 2 2 2 2 3 3 3 3 3 3 3 4 4 3 3 3 3 4 2 2 3 3 2 3 3 3 3 3 4 4 4 4 4
0 0 0 1 1 1 1 1 1 2 2 2 1 2 2 3 2 2 2 3 3 4 4 4 3 3 3 3 3 2 2 2 2 3 3 3 3 3 3 4 4 4 4 4
0 0 0 0 0 1 1 1 1 1 2 2 2 2 2 2 2 2 2 3 3 5 4 3 3 4 4 3 1 1 2 2 2 3 3 3 3 3 4 4 4 4 4 4
0 0 0 0 0 1 2 1 1 1 1 2 2 2 2 2 2 2 3 2 3 5 4 3 5 6 5 2 1 2 2 2 3 3 3 3 3 4 4 5 4 4 4 5
0 1 1 1 0 0 1 2 2 2 2 2 2 2 2 2 2 2 2 4 6 6 4 4 7 7 5 2 2 2 2 2 3 3 3 3 3 4 4 4 4 5 5 6
1 1 1 1 0 0 1 2 2 2 2 2 2 2 2 2 2 3 3 3 5 5 4 5 7 7 4 3 3 3 3 3 3 3 3 3 4 4 4 4 4 5 5 5
0 0 0 1 1 1 1 1 1 2 2 2 2 2 2 2 2 2 2 3 4 5 4 3 4 4 3 3 3 3 3 4 4 4 4 4 5 5 5 5 6 5 5 5
0 0 0 1 1 1 1 1 2 2 2 2 3 3 3 2 2 3 3 3 3 3 3 3 3 3 3 3 3 4 4 4 4 4 4 4 4 5 5 6 5 5 5 6
Wind_Direction
273 283 255 245 235 213 218 233 245 256 258 271 279 284 291 293 290 285 288 295 293 290 293 296 297 295 292 285 274 253 239 244 253 264 265 265 267 271 272 268 269 270 270 270
265 270 261 267 253 234 237 244 250 264 271 280 292 289 285 287 284 276 283 292 292 287 285 286 287 289 289 284 273 251 240 247 253 252 252 257 264 271 273 274 275 269 264 266
251 302 289 260 241 216 218 224 225 242 259 282 275 276 285 289 278 271 280 286 285 280 275 276 277 278 275 276 270 250 244 246 242 241 244 249 252 258 264 272 273 272 270 266
260 254 243 252 62 202 222 238 228 249 268 279 283 298 289 277 280 281 283 281 281 282 279 280 279 278 277 271 254 246 247 248 244 235 238 244 244 251 265 274 266 268 268 270
215 248 269 268 178 179 211 253 227 244 262 278 304 297 267 260 271 279 286 287 286 282 279 279 276 276 272 267 256 247 249 252 253 246 243 244 247 256 268 265 263 265 270 272
207 237 251 267 106 195 206 255 191 230 254 268 273 268 297 3 313 298 300 297 295 287 280 275 276 271 256 257 256 257 259 260 259 252 243 243 248 259 267 261 262 270 275 277
222 240 262 11 137 174 212 284 357 243 247 230 229 262 322 317 309 307 306 304 300 285 276 275 273 256 252 256 260 268 268 262 260 256 249 247 250 255 252 253 258 267 273 276
199 223 248 131 149 197 270 357 290 273 267 257 264 284 294 298 301 306 307 307 303 293 290 291 273 255 259 263 270 274 266 261 262 263 262 251 242 248 246 243 244 252 263 276
205 222 31 157 188 238 331 283 282 282 284 276 275 279 289 294 296 300 301 301 300 292 294 296 281 263 265 273 276 268 263 265 270 272 269 258 245 243 244 238 241 252 257 267
249 257 248 223 239 271 276 277 284 285 283 272 270 279 286 289 293 296 299 299 297 292 288 292 290 278 268 274 266 253 257 266 266 266 267 264 256 249 247 243 243 247 253 262
250 272 285 242 237 254 270 276 284 289 284 273 269 275 279 282 286 290 296 298 292 282 282 288 294 286 282 270 250 249 253 255 260 262 263 268 268 267 262 256 256 257 258 262
233 223 226 259 241 238 248 259 267 277 287 285 271 271 277 278 283 288 291 294 289 283 281 286 289 285 280 265 241 236 247 254 257 258 258 261 272 289 288 278 277 275 274 272
253 296 267 275 271 248 251 265 271 270 272 282 283 275 274 280 286 288 289 290 287 285 284 285 285 283 283 269 246 236 244 256 259 254 252 256 262 270 290 306 295 287 283 284
239 246 257 250 253 262 266 274 277 281 282 282 287 288 280 283 288 286 288 292 293 289 287 287 284 284 288 273 254 249 253 257 261 258 258 259 260 263 269 277 287 289 290 289
232 235 241 261 266 265 272 279 281 285 294 300 294 285 281 282 286 291 297 300 296 288 287 287 283 287 294 278 260 256 259 256 257 261 260 262 264 265 266 268 273 282 291 292
240 237 233 238 251 261 267 265 266 276 286 294 294 289 284 281 287 293 297 299 291 292 296 292 285 288 290 280 269 264 260 269 275 271 266 264 262 261 264 266 272 277 282 291
207 230 232 246 256 261 264 263 264 269 276 280 287 290 288 288 293 298 304 305 291 284 287 286 285 288 285 277 273 272 269 266 277 279 271 268 266 266 268 268 270 277 281 284
233 238 233 235 242 252 265 272 271 272 276 283 287 279 274 277 288 298 304 310 308 302 294 291 288 288 281 276 270 266 264 264 264 267 268 268 270 271 272 272 276 279 285 285
236 238 240 242 241 240 252 267 275 281 287 282 276 273 274 277 284 292 298 299 297 301 309 308 309 311 296 285 284 267 263 263 265 262 263 268 275 270 271 272 273 276 282 285
265 249 246 269 281 258 259 273 281 290 294 290 284 285 291 293 293 293 293 286 285 291 299 301 302 302 300 287 288 272 265 267 269 268 268 269 272 273 273 273 274 275 276 276
267 32 17 351 341 328 295 284 289 297 303 294 281 284 293 302 303 297 294 299 317 314 309 313 319 304 294 293 290 283 278 279 277 275 276 276 277 277 277 277 277 276 275 275
122 75 16 18 1 335 340 337 318 303 310 315 311 301 301 306 311 304 285 287 313 321 325 320 312 302 312 321 318 306 294 289 285 280 277 276 275 276 278 281 280 280 278 276
127 106 87 31 322 321 338 341 329 316 315 314 312 306 299 300 302 302 309 317 320 324 330 322 319 324 337 349 327 302 294 290 286 283 281 280 279 279 280 280 281 281 281 280
97 76 60 40 56 40 346 337 335 328 319 310 308 302 297 298 300 293 297 315 327 329 328 324 333 340 350 348 329 312 302 295 291 288 285 281 280 280 280 280 281 281 279 279
114 106 104 107 75 328 326 330 335 337 335 332 332 329 314 298 294 307 316 315 321 331 331 333 338 344 349 334 327 319 309 297 295 296 295 293 289 286 283 281 280 280 280 279
92 324 284 281 287 301 311 313 315 321 324 327 330 334 336 329 315 313 318 322 324 329 331 326 326 331 326 321 316 311 305 303 305 301 294 292 288 288 285 283 281 279 278 276
65 17 350 357 343 325 311 304 305 310 313 312 314 323 326 325 325 328 327 327 328 326 321 320 322 321 316 313 310 308 305 302 299 296 294 291 289 287 286 285 283 281 279 276